Location: Chuathbaluk
(61.5726°N, 159.2454°W)
Time: 14:31:46
(UTC+00:00)

ITAMSAT 1 - Pass Details

Date: 17 January 2021
Orbit: 784 x 796 km, 98.9° (Epoch: 01 March)

Event Time Altitude Azimuth Distance (km) Brightness Sun altitude
Rises 16:47:23 0° 20° (NNE) 3,292 11.0 -18.0°
Reaches altitude 10° 16:49:54 10° 29° (NNE) 2,358 10.3 -17.7°
Maximum altitude 16:54:43 37° 96° (E) 1,205 9.2 -17.1°
Drops below altitude 10° 16:59:30 10° 164° (SSE) 2,345 10.5 -16.6°
Sets 17:01:59 0° 173° (S) 3,271 11.1 -16.3°
